Location: Mentone
(34.5413°N, 85.5351°W)
Time: 18:08:51
(UTC-06:00)

Tiros 1 despin weight - Visible Passes

Search period start: 18 January 2017 00:00
Search period end: 28 January 2017 00:00
Orbit: 595 x 644 km, 48.2° (Epoch: 18 January)

Date Brightness Start Highest point End Pass type
(mag) Time Alt. Az. Time Alt. Az. Time Alt. Az.
18 Jan ? 04:24:38 26° NE 04:24:38 26° NE 04:26:44 10° NE visible
18 Jan ? 06:01:45 12° WNW 06:04:32 19° NNW 06:07:44 10° NNE visible
19 Jan ? 04:41:17 25° NNE 04:41:17 25° NNE 04:43:39 10° NE visible
19 Jan ? 06:19:30 10° NW 06:22:10 15° N 06:24:49 10° NNE visible
20 Jan ? 04:57:50 21° N 04:57:50 21° N 05:00:31 10° NNE visible
21 Jan ? 05:14:17 17° NNW 05:14:31 17° NNW 05:17:29 10° NNE visible
22 Jan ? 05:30:41 13° NNW 05:32:10 15° N 05:34:43 10° NNE visible
23 Jan ? 04:09:58 11° NNE 04:09:58 11° NNE 04:10:12 10° NNE visible
23 Jan ? 05:47:17 10° NNW 05:49:51 15° N 05:52:25 10° NE visible
24 Jan ? 04:26:18 13° NNE 04:26:18 13° NNE 04:27:16 10° NNE visible
24 Jan ? 06:04:30 10° NNW 06:07:32 17° NNE 06:10:31 10° NE visible
25 Jan ? 04:42:38 14° N 04:42:38 14° N 04:44:42 10° NNE visible
26 Jan ? 04:58:58 15° N 04:59:51 16° N 05:02:38 10° NE visible
27 Jan ? 05:15:19 14° NNW 05:17:29 19° NNE 05:20:48 10° ENE visible
